Theta_e
335 340 347 354 355 355 353 353 352 351 350 348 347 344 343 341 343 342 341 341 340 340 340 340 339 338 337 337 339 342 340 341
334 340 349 353 353 355 352 350 349 348 347 345 345 343 341 341 342 340 339 339 339 339 339 340 340 338 339 339 338 340 341 341
334 338 342 351 351 348 348 346 346 344 344 343 342 341 340 339 339 338 338 338 338 338 339 339 339 340 341 340 339 339 340 341
326 327 330 334 340 347 346 346 344 342 340 338 336 335 334 334 335 335 336 337 337 337 338 337 338 339 339 339 338 338 339 341
321 324 324 326 330 330 333 342 341 341 337 336 335 335 334 334 334 334 334 334 335 335 336 336 337 339 338 338 338 337 338 340
314 314 317 321 324 325 325 330 340 338 337 337 335 336 333 326 324 326 330 333 333 336 336 336 337 338 337 337 336 335 338 331
311 312 319 322 323 323 328 324 327 328 328 328 329 326 323 324 321 326 329 333 332 333 335 336 336 336 336 327 327 332 330 330
313 318 319 322 323 322 323 322 321 321 322 324 325 323 321 322 320 321 322 322 320 326 325 329 330 329 329 325 323 323 327 330
315 318 321 322 322 323 323 322 320 322 323 322 323 322 321 320 320 320 321 321 320 321 322 324 324 326 325 325 323 322 327 329
316 319 321 322 323 323 322 321 320 323 323 322 321 323 322 321 320 320 320 320 320 320 320 321 322 324 324 325 323 322 326 328
316 318 319 321 322 321 321 321 322 323 324 324 323 323 325 323 321 319 319 321 321 320 319 321 322 322 322 322 321 322 326 327
316 318 318 318 321 321 322 322 323 324 325 323 324 324 325 324 321 321 319 320 322 321 320 320 322 323 323 322 321 321 325 328
316 317 319 324 322 321 321 321 324 324 324 324 323 324 326 326 323 321 320 320 322 321 319 319 320 320 323 322 320 322 324 328
316 316 318 319 322 322 321 324 324 325 324 324 324 324 325 326 326 322 321 321 321 319 318 319 319 319 320 320 320 321 324 326
314 318 318 319 322 321 323 323 323 324 324 324 324 324 325 324 325 324 321 321 321 318 318 318 318 321 320 320 324 321 322 326
315 317 318 319 320 323 322 322 320 320 321 321 323 325 324 324 325 323 321 321 321 317 317 318 319 320 318 321 319 319 322 329
314 316 318 319 321 324 322 323 323 321 322 322 322 323 324 325 325 324 321 321 320 318 318 318 318 316 317 319 318 321 317 321
313 316 318 320 322 324 323 322 321 320 320 320 321 320 322 326 325 324 322 319 320 318 318 318 318 318 317 319 323 317 316 315
314 316 321 321 323 324 324 321 317 316 316 317 320 319 321 324 325 325 325 323 321 320 317 318 320 319 318 319 321 323 321 322
Wind_Speed
9 11 12 17 16 16 16 15 14 14 14 14 14 14 13 14 13 14 15 15 14 14 14 14 12 12 11 11 8 9 9 8
8 9 13 19 18 18 17 15 14 13 10 7 10 12 13 13 13 13 15 16 16 16 16 15 14 13 13 9 10 8 9 9
13 10 12 18 18 17 15 14 13 12 12 12 11 10 10 11 12 14 15 16 17 17 17 17 16 16 13 11 10 8 8 9
12 12 9 9 12 14 13 12 12 13 14 13 12 11 11 11 13 14 16 17 17 17 18 17 16 16 15 13 11 9 8 9
8 8 7 6 6 5 5 11 13 14 13 12 10 10 10 11 11 11 13 14 16 18 19 20 19 18 17 14 12 10 9 11
4 6 6 7 7 6 6 6 11 12 12 11 10 10 8 4 6 7 8 12 13 16 17 19 19 17 17 15 14 12 11 3
5 5 7 8 7 6 4 4 2 3 4 4 5 6 4 5 5 6 9 12 13 12 12 16 18 16 16 4 4 11 3 4
7 5 7 7 7 7 4 4 2 1 2 3 6 6 6 4 4 3 3 3 3 8 3 5 6 4 6 4 4 4 4 4
8 8 8 8 7 6 4 2 2 3 3 3 5 6 4 3 4 4 3 4 4 3 4 3 3 4 5 6 6 5 5 4
11 10 10 8 7 6 4 3 3 3 3 5 4 5 4 4 5 4 4 4 4 3 3 4 4 4 5 5 5 5 5 5
10 9 9 8 7 6 3 3 4 3 5 4 4 5 6 5 5 5 4 5 4 4 4 4 5 4 4 3 4 5 6 5
9 10 9 8 7 6 4 4 3 4 4 4 4 6 5 5 7 6 4 4 5 4 5 4 4 4 4 3 5 5 4 5
10 9 8 7 8 7 3 2 2 3 3 4 4 4 5 5 6 5 4 4 4 4 4 4 4 3 3 4 2 4 4 5
10 9 8 7 8 5 1 1 3 4 3 3 3 3 5 5 5 5 4 4 4 3 3 4 2 3 3 2 3 4 4 4
9 9 8 6 7 4 1 2 2 2 3 2 3 3 5 4 5 4 4 4 4 4 4 3 3 2 2 4 4 4 2 3
8 8 8 8 5 3 2 1 1 2 3 2 2 4 4 5 6 3 3 4 4 5 5 5 3 3 1 3 4 4 3 5
9 8 8 7 6 3 2 2 2 2 3 3 2 4 4 4 4 3 3 5 5 4 6 5 5 3 1 2 4 3 3 2
9 8 8 8 6 4 2 0 2 1 1 2 2 3 3 2 3 3 4 4 5 5 5 5 5 6 4 1 5 4 3 3
8 7 8 7 6 4 4 2 1 2 1 2 2 2 3 2 3 3 4 5 5 4 5 5 5 4 5 5 3 3 1 5
Wind_Direction
153 162 169 171 177 184 194 199 207 220 234 233 230 232 229 236 237 238 239 242 246 245 252 244 238 248 244 247 257 267 245 247
151 158 164 172 180 186 191 190 196 206 215 209 227 234 238 241 244 243 244 245 245 248 245 246 244 235 241 236 249 261 250 243
153 166 174 177 180 183 185 187 187 191 197 204 212 224 238 243 249 252 252 252 254 250 249 249 241 238 231 219 231 245 254 238
164 170 175 174 184 182 177 178 185 196 204 208 213 217 227 239 248 255 257 256 254 254 252 250 251 239 233 216 214 226 240 238
170 173 171 142 153 140 189 192 201 209 210 213 216 218 222 232 240 251 256 258 259 259 255 250 243 242 229 214 209 220 236 236
146 160 157 140 132 163 206 221 221 227 225 223 226 225 225 219 238 251 251 248 260 253 255 250 241 237 224 211 206 217 233 228
165 144 137 126 149 175 152 119 188 234 249 218 207 215 221 213 227 245 250 265 269 267 257 250 240 231 214 193 208 216 211 222
154 148 152 149 166 159 133 130 133 196 227 194 212 209 211 208 224 254 266 280 282 275 265 276 240 202 188 169 187 212 225 226
158 154 160 170 160 159 133 162 207 190 183 205 227 232 207 214 228 235 249 247 240 241 235 224 207 192 180 181 190 210 214 223
156 166 171 162 162 157 157 202 218 229 217 223 229 221 211 218 218 209 227 232 232 236 220 208 199 185 187 189 191 202 217 215
158 162 169 165 164 142 176 208 233 241 248 255 248 240 224 218 213 210 217 234 239 217 210 200 190 180 197 171 202 214 229 211
162 161 163 147 143 133 172 218 231 249 243 252 250 254 253 225 206 202 210 232 234 220 208 185 180 157 180 175 212 218 224 216
142 156 149 119 121 142 157 219 235 245 241 254 259 254 265 229 209 201 215 231 236 206 178 167 163 167 190 187 183 217 204 171
146 143 122 124 128 134 186 285 289 270 239 252 260 262 259 246 224 206 213 239 222 167 157 152 142 148 174 184 197 185 186 144
137 131 137 125 134 120 104 6 326 269 266 259 261 255 263 244 237 206 207 214 182 142 141 147 148 134 152 179 172 126 126 132
127 135 138 131 143 116 68 12 316 264 256 271 263 282 272 235 240 227 203 191 169 160 173 171 121 121 152 167 106 88 52 78
151 148 136 137 143 124 134 220 213 244 249 240 291 297 300 226 216 233 197 179 170 151 176 153 136 124 100 172 129 106 124 77
148 155 146 150 139 132 183 194 344 349 312 4 313 304 324 276 228 242 189 164 168 159 168 150 155 143 120 352 140 137 121 172
163 145 141 144 133 161 166 152 151 223 262 251 276 295 327 353 236 178 179 170 177 167 162 158 154 136 123 145 42 1 191 102